Location: Biltmore Gardens
(41.6070°N, 83.4666°W)
Time: 14:41:29
(UTC+00:00)

Meteor 1-13 Rocket - Pass Details

Date: 14 July 2020
Orbit: 830 x 913 km, 81.3° (Epoch: 13 August)

Event Time Altitude Azimuth Distance (km) Brightness Sun altitude
Rises 07:56:59 0° 347° (NNW) 3,484 8.1 -19.3°
Reaches altitude 10° 07:59:28 10° 345° (NNW) 2,529 7.2 -19.0°
Maximum altitude 08:05:09 67° 264° (W) 931 4.2 -18.4°
Enters shadow 08:08:12 27° 190° (S) 1,566 5.1 -18.1°
